Weather in Opukhliki

Russia / Pskov Oblast     56°05′33″N   30°09′23″E
temp.,
°C
wind,
m/s
gust,
m/s
humid.,
%
clouds,
%
prec.,
mm/h
press.,
hPa
HPBL,
m
14 may, fri
fri1400:00+7se289894 0.0 1011228
03:00+7se3109567 0.0 1011300
06:00+8se4119689 0.3 1010593
09:00+10se41294100 0.4 1010687
12:00+11se41393100 0.1 1011691
15:00+14se597546 0.1 1010781
18:00+15se387762 0.6 1008489
21:00+12ese26935 2.1 1007106
15 may, sat
sat1500:00+11e2297100 0.3 100739
03:00+11ese2499100 1.4 100693
06:00+11ese249978 1.4 1006138
09:00+13se2394100 4.1 1006467
12:00+15se1289100 1.8 1005499
15:00+19se126984 2.8 1004769
18:00+17ssw138889 2.6 100499
21:00+14wsw229291 3.7 100429
16 may, sun
sun1600:00+12wsw2497100 1.2 100580
03:00+11wsw2698100 2.5 1006145
06:00+10sw259817 0.0 1007142
09:00+15w348641 0.0 1009535
12:00+20wsw345542 0.0 10091427
15:00+21sw3446100 0.0 10092020
18:00+19ssw456593 0.3 1010761
21:00+14s249599 0.6 101168
17 may, mon
mon1700:00+12sse25960 0.0 101190
03:00+10se2597100 0.0 1011103
06:00+11se2896100 0.0 1011204
09:00+16se4776100 0.0 1011511
12:00+19se4660100 0.0 10101044
15:00+20e3563100 0.0 10071073
18:00+15n2596100 3.2 1004160
21:00+14n25100100 14.5 1004214
18 may, tue
tue1800:00+14nnw2699100 4.5 1003322
03:00+13wsw2699100 7.2 1004237
06:00+13wsw2699100 0.0 1005290
09:00+14wsw2493100 0.0 1006407
12:00+17wsw3468100 0.1 10071158
15:00+20w3347100 0.1 10071466
18:00+19wnw235784 0.0 10071311
21:00+14w1176100 0.0 100710